Location: Blazny
(46.0612°N, 84.4033°W)
Time: 19:10:00
(UTC-04:00)

Envisat - Pass Details

Date: 20 September 2024
Orbit: 762 x 764 km, 98.3° (Epoch: 11 October)

Event Time Altitude Azimuth Distance (km) Brightness Sun altitude
Rises 05:17:49 0° 10° (N) 3,237 6.7 -21.7°
Reaches altitude 10° 05:20:10 10° 6° (N) 2,307 5.9 -21.4°
Maximum altitude 05:25:08 57° 289° (WNW) 895 3.0 -20.6°
Enters shadow 05:26:29 43° 237° (WSW) 1,067 3.2 -20.4°
